Emporia, Virginia, United States (23847)
Lat: 36.69N, Lon: 77.54W
Wx Zone: VAZ087
Local Info
Past Weather Observations for Friday, July 25, 2014

NOTE: This archive is for the closest National Weather Service station to Emporia. Information may differ from the station used for current weather conditions.

Click here for Long-term Archive

Time Weather Temperature Dewpoint Humidity Pressure Winds Precip Visibility
23:55
Clear
68°F / 20°C 64°F / 18°C 88% 30.06 in
(1018 mb)
Calm - 10SM
23:35
Clear
68°F / 20°C 64°F / 18°C 88% 30.06 in
(1018 mb)
Calm - 10SM
23:15
Clear
68°F / 20°C 64°F / 18°C 88% 30.06 in
(1018 mb)
SE 3.5 mph
(SE 6 kph)
- 10SM
22:55
Clear
68°F / 20°C 64°F / 18°C 88% 30.06 in
(1018 mb)
SE 3.5 mph
(SE 6 kph)
- 10SM
22:35
Clear
68°F / 20°C 64°F / 18°C 88% 30.06 in
(1018 mb)
SE 3.5 mph
(SE 6 kph)
- 10SM
22:15
Clear
68°F / 20°C 66°F / 19°C 94% 30.04 in
(1017 mb)
SE 3.5 mph
(SE 6 kph)
- 10SM
21:55
Clear
68°F / 20°C 66°F / 19°C 94% 30.06 in
(1018 mb)
SE 3.5 mph
(SE 6 kph)
- 10SM
21:35
Clear
68°F / 20°C 64°F / 18°C 88% 30.06 in
(1018 mb)
Calm - 10SM
21:15
Clear
68°F / 20°C 66°F / 19°C 94% 30.06 in
(1018 mb)
Calm - 10SM
20:55
Clear
68°F / 20°C 64°F / 18°C 88% 30.06 in
(1018 mb)
Calm - 10SM
20:35
Clear
66°F / 19°C 64°F / 18°C 94% 30.06 in
(1018 mb)
Calm - 10SM
20:15
Clear
68°F / 20°C 66°F / 19°C 94% 30.06 in
(1018 mb)
Calm - 10SM
19:55
Clear
68°F / 20°C 66°F / 19°C 94% 30.06 in
(1018 mb)
Calm - 10SM
19:35
Clear
70°F / 21°C 68°F / 20°C 94% 30.06 in
(1018 mb)
Calm - 10SM
19:15
Clear
72°F / 22°C 68°F / 20°C 88% 30.06 in
(1018 mb)
Calm - 10SM
18:55
Clear
73°F / 23°C 70°F / 21°C 89% 30.06 in
(1018 mb)
Calm - 10SM
18:35
Partly Cloudy
79°F / 26°C 68°F / 20°C 70% 30.06 in
(1018 mb)
Calm - 10SM
18:15
Partly Cloudy
79°F / 26°C 64°F / 18°C 61% 30.06 in
(1018 mb)
Calm - 10SM
17:55
Partly Cloudy
79°F / 26°C 64°F / 18°C 61% 30.06 in
(1018 mb)
Calm - 10SM
17:35
Partly Cloudy
79°F / 26°C 64°F / 18°C 61% 30.06 in
(1018 mb)
SE 3.5 mph
(SE 6 kph)
-
17:15
Mostly Cloudy
79°F / 26°C 63°F / 17°C 58% 30.06 in
(1018 mb)
Calm - 10SM
16:55
Mostly Cloudy
79°F / 26°C 64°F / 18°C 61% 30.04 in
(1017 mb)
SSE 3.5 mph
(SSE 6 kph)
- 10SM
16:35
Partly Cloudy
81°F / 27°C 63°F / 17°C 54% 30.04 in
(1017 mb)
SE 4.6 mph
(SE 7 kph)
- 10SM
16:15
Partly Cloudy
82°F / 28°C 64°F / 18°C 55% 30.04 in
(1017 mb)
SE 6.9 mph
(SE 11 kph)
- 10SM
15:55
Mostly Cloudy
81°F / 27°C 63°F / 17°C 54% 30.04 in
(1017 mb)
E 3.5 mph
(E 6 kph)
- 10SM
15:35
Overcast
81°F / 27°C 63°F / 17°C 54% 30.04 in
(1017 mb)
E 4.6 mph
(E 7 kph)
-
15:15
Mostly Cloudy
81°F / 27°C 63°F / 17°C 54% 30.04 in
(1017 mb)
Calm - 10SM
14:55
Partly Cloudy
81°F / 27°C 61°F / 16°C 51% 30.04 in
(1017 mb)
Calm - 10SM
14:35
Partly Cloudy
81°F / 27°C 63°F / 17°C 54% 30.04 in
(1017 mb)
SE 4.6 mph
(SE 7 kph)
- 10SM
14:15
Clear
81°F / 27°C 63°F / 17°C 54% 30.04 in
(1017 mb)
ENE 3.5 mph
(ENE 6 kph)
- 10SM
13:55
Partly Cloudy
81°F / 27°C 61°F / 16°C 51% 30.06 in
(1018 mb)
Calm - 10SM
13:35
Mostly Cloudy
79°F / 26°C 61°F / 16°C 54% 30.06 in
(1018 mb)
NE 3.5 mph
(NE 6 kph)
- 10SM
13:15
Clear
81°F / 27°C 63°F / 17°C 54% 30.06 in
(1018 mb)
NE 4.6 mph
(NE 7 kph)
-
12:55
Partly Cloudy
79°F / 26°C 61°F / 16°C 54% 30.06 in
(1018 mb)
ENE 4.6 mph
(ENE 7 kph)
- 10SM
12:35
Partly Cloudy
81°F / 27°C 61°F / 16°C 51% 30.06 in
(1018 mb)
Calm - 10SM
12:15
Partly Cloudy
79°F / 26°C 61°F / 16°C 54% 30.06 in
(1018 mb)
Calm - 10SM
11:55
Mostly Cloudy
79°F / 26°C 61°F / 16°C 54% 30.09 in
(1019 mb)
Calm - 10SM
11:35
Partly Cloudy
79°F / 26°C 61°F / 16°C 54% 30.09 in
(1019 mb)
N 5.8 mph
(N 9 kph)
- 10SM
11:15
Clear
77°F / 25°C 61°F / 16°C 57% 30.09 in
(1019 mb)
N 3.5 mph
(N 6 kph)
- 10SM
10:55
Clear
77°F / 25°C 59°F / 15°C 54% 30.09 in
(1019 mb)
N 5.8 mph
(N 9 kph)
-
10:35
Clear
77°F / 25°C 63°F / 17°C 61% 30.09 in
(1019 mb)
NNE 4.6 mph
(NNE 7 kph)
- 10SM
10:15
Clear
77°F / 25°C 63°F / 17°C 61% 30.09 in
(1019 mb)
NNE 4.6 mph
(NNE 7 kph)
- 10SM
09:55
Clear
75°F / 24°C 63°F / 17°C 65% 30.09 in
(1019 mb)
NNE 4.6 mph
(NNE 7 kph)
-
09:35
Clear
75°F / 24°C 64°F / 18°C 69% 30.09 in
(1019 mb)
ENE 5.8 mph
(ENE 9 kph)
- 10SM
09:15
Clear
73°F / 23°C 64°F / 18°C 74% 30.09 in
(1019 mb)
NE 4.6 mph
(NE 7 kph)
- 10SM
08:55
Partly Cloudy
72°F / 22°C 64°F / 18°C 78% 30.09 in
(1019 mb)
N 6.9 mph
(N 11 kph)
- 10SM
08:35
Clear
72°F / 22°C 64°F / 18°C 78% 30.09 in
(1019 mb)
N 5.8 mph
(N 9 kph)
- 10SM
08:15
Clear
70°F / 21°C 64°F / 18°C 83% 30.09 in
(1019 mb)
NW 3.5 mph
(NW 6 kph)
- 10SM
07:55
Partly Cloudy
70°F / 21°C 64°F / 18°C 83% 30.09 in
(1019 mb)
N 3.5 mph
(N 6 kph)
- 10SM
07:35
Partly Cloudy
70°F / 21°C 64°F / 18°C 83% 30.09 in
(1019 mb)
NW 5.8 mph
(NW 9 kph)
- 10SM
07:15
Fair
68°F / 20°C 64°F / 18°C 88% 30.06 in
(1018 mb)
NW 5.8 mph
(NW 9 kph)
-
06:55
Overcast
68°F / 20°C 64°F / 18°C 88% 30.06 in
(1018 mb)
W 5.8 mph
(W 9 kph)
- 7SM
06:35
Overcast
Fog And Mist
68°F / 20°C 64°F / 18°C 88% 30.06 in
(1018 mb)
NW 4.6 mph
(NW 7 kph)
- 5SM
06:15
Overcast
Fog And Mist
66°F / 19°C 64°F / 18°C 94% 30.06 in
(1018 mb)
Calm - 5SM
05:55
Overcast
Fog And Mist
64°F / 18°C 64°F / 18°C 100% 30.06 in
(1018 mb)
WNW 4.6 mph
(WNW 7 kph)
- 5SM
05:35
Overcast
Fog And Mist
64°F / 18°C 64°F / 18°C 100% 30.04 in
(1017 mb)
WNW 3.5 mph
(WNW 6 kph)
- 5SM
05:15
Overcast
Fog And Mist
64°F / 18°C 64°F / 18°C 100% 30.04 in
(1017 mb)
W 3.5 mph
(W 6 kph)
- 5SM
04:55
Overcast
Fog And Mist
64°F / 18°C 64°F / 18°C 100% 30.04 in
(1017 mb)
NW 3.5 mph
(NW 6 kph)
- 5SM
04:35
Overcast
Fog And Mist
64°F / 18°C 64°F / 18°C 100% 30.04 in
(1017 mb)
NW 4.6 mph
(NW 7 kph)
- 5SM
04:15
Overcast
Fog And Mist
66°F / 19°C 64°F / 18°C 94% 30.04 in
(1017 mb)
Calm - 5SM
03:55
Overcast
Fog And Mist
66°F / 19°C 64°F / 18°C 94% 30.01 in
(1016 mb)
NW 3.5 mph
(NW 6 kph)
- 5SM
03:35
Mostly Cloudy
Fog And Mist
66°F / 19°C 64°F / 18°C 94% 30.01 in
(1016 mb)
NW 3.5 mph
(NW 6 kph)
- 4SM
03:15
Mostly Cloudy
66°F / 19°C 66°F / 19°C 100% 30.01 in
(1016 mb)
WNW 3.5 mph
(WNW 6 kph)
-
02:55
Partly Cloudy
Fog And Mist
66°F / 19°C 66°F / 19°C 100% 30.01 in
(1016 mb)
NW 3.5 mph
(NW 6 kph)
- 5SM
02:35
Mostly Cloudy
Fog And Mist
68°F / 20°C 66°F / 19°C 94% 30.01 in
(1016 mb)
NW 3.5 mph
(NW 6 kph)
- 4SM
02:15
Overcast
Fog And Mist
68°F / 20°C 68°F / 20°C 100% 30.01 in
(1016 mb)
NW 3.5 mph
(NW 6 kph)
- 4SM
01:55
Overcast
Fog And Mist
68°F / 20°C 68°F / 20°C 100% 30.01 in
(1016 mb)
NW 4.6 mph
(NW 7 kph)
0.01 in
(0.25 mm)
5SM
01:35
Overcast
Fog And Mist
68°F / 20°C 68°F / 20°C 100% 30.01 in
(1016 mb)
WNW 3.5 mph
(WNW 6 kph)
0.01 in
(0.25 mm)
5SM
01:15
Overcast
Fog And Mist
68°F / 20°C 68°F / 20°C 100% 30.01 in
(1016 mb)
Calm - 5SM
00:55
Mostly Cloudy
Fog And Mist
68°F / 20°C 68°F / 20°C 100% 30.01 in
(1016 mb)
E 3.5 mph
(E 6 kph)
- 4SM
00:35
Overcast
Fog And Mist
68°F / 20°C 68°F / 20°C 100% 29.98 in
(1015 mb)
E 3.5 mph
(E 6 kph)
- 4SM
00:15
Mostly Cloudy
68°F / 20°C 68°F / 20°C 100% 29.98 in
(1015 mb)
E 3.5 mph
(E 6 kph)
-
Time Weather Temperature Dewpoint Humidity Pressure Winds Precip Visibility


Weather for websites

WeatherForYou.com, LLC is not responsible for any damages or problems caused by this service. Current weather conditions are obtained from the closest station including government and personal stations which may have varying degrees of accuracy. Weather forecasts are derived from the NOAA NDFD. Like all things, this site belongs to Jesus Christ... He just trusts me to maintain it. If you have any questions or comments email webmaster@weatherforyou.com

Copyright © 2014, WeatherForYou.com LLC. All rights reserved.